Погода в Люцерне

Швейцария     47°02′52″N   8°18′14″E
темп.,
°C
ветер,
м/с
пор.,
м/с
влажн.,
%
обл.,
%
осадки,
мм/ч
давл.,
гПа
погр.,
м
17 августа, ср
ср1723:00+16ю32695 0.0 101232
02:00+15ю227343 0.1 101231
05:00+15юз228064 0.3 101325
08:00+16ююв1179100 0.3 101331
11:00+22св225345 0.0 1012708
14:00+26с224394 0.1 10101425
17:00+26ссв1244100 0.1 10091839
20:00+15ююв229797 5.4 101271
18 августа, чт
чт1823:00+14зюз2297100 1.7 101562
02:00+15зюз0098100 2.8 101434
05:00+14ссз1199100 3.6 101479
08:00+14юз0098100 4.6 101541
11:00+15ссв119696 0.1 1015221
14:00+16в1189100 0.4 1014346
17:00+19с2170100 0.4 1013880
20:00+16ссз119389 1.6 101318
19 августа, пт
пт1923:00+15з1199100 5.2 101453
02:00+14з1298100 6.9 101460
05:00+14зюз1299100 6.9 101394
08:00+14з1199100 11.1 101572
11:00+17з1187100 1.1 1016472
14:00+20сз2366100 2.0 10161075
17:00+22зсз135023 0.4 10161644
20:00+17зюз2275100 0.6 101717
20 августа, сб
сб2023:00+15ю219385 1.9 101929
02:00+15ююз2292100 3.3 101924
05:00+14ююз229277 0.5 101922
08:00+16ю119072 0.7 101922
11:00+20с11685 0.3 1019682
14:00+23с224853 0.4 10181793
17:00+21сз116198 0.1 1018702
20:00+17ююз118536 0.6 101911
21 августа, вс
вс2123:00+15ю229159 0.0 102025
02:00+14ю229047 0.0 102024
05:00+14ю2289100 0.0 101921
08:00+15ю1185100 0.0 101936
11:00+20с2168100 0.1 1018640
14:00+21с226893 0.9 10171016
17:00+20юв118166 1.8 1017425
20:00+16ююв118667 3.1 101711